EW0591 Weather Reports


Display with metric or nautical units.
time (UTC)temp
F
wind
direction
speed
MPH
gust
MPH
rain 1hr
in
rain 24hr
in
rain mn
in
humidity
%
barometer
mb
20260507090349 53 222 0.0 0.0 0.00 0.00 0.00 69 1019.8
20260507085846 53 196 0.0 0.0 0.00 0.00 0.00 68 1019.9
20260507085343 53 92 1.0 2.0 0.00 0.00 0.00 67 1019.8
20260507084840 52 235 2.0 2.0 0.00 0.00 0.00 70 1019.8
20260507084336 54 119 2.0 2.0 0.00 0.00 0.00 66 1019.7
20260507083834 53 205 0.0 0.0 0.00 0.00 0.00 67 1019.9
20260507083330 53 146 0.0 0.0 0.00 0.00 0.00 68 1019.7
20260507082826 53 194 0.0 1.0 0.00 0.00 0.00 67 1019.9
20260507082322 54 228 0.0 0.0 0.00 0.00 0.00 65 1019.8
20260507081819 55 179 1.0 1.0 0.00 0.00 0.00 63 1019.9
20260507081315 56 193 0.0 0.0 0.00 0.00 0.00 62 1019.8
20260507080812 56 144 1.0 1.0 0.00 0.00 0.00 60 1019.9
20260507080308 55 132 4.0 5.0 0.00 0.00 0.00 62 1019.8
20260507075803 56 237 0.0 0.0 0.00 0.00 0.00 63 1019.7
20260507075300 56 84 2.0 2.0 0.00 0.00 0.00 61 1019.7
20260507074756 55 212 0.0 0.0 0.00 0.00 0.00 63 1019.7
20260507074255 55 196 0.0 0.0 0.00 0.00 0.00 63 1019.5
20260507073751 56 201 0.0 1.0 0.00 0.00 0.00 61 1019.7
20260507073248 56 194 0.0 0.0 0.00 0.00 0.00 63 1019.7
20260507072746 55 340 3.0 3.0 0.00 0.00 0.00 65 1019.6
20260507072243 55 206 0.0 0.0 0.00 0.00 0.00 64 1019.7
20260507071740 55 240 0.0 0.0 0.00 0.00 0.00 65 1019.5
20260507071236 57 149 1.0 1.0 0.00 0.00 0.00 60 1019.5
20260507070733 56 253 0.0 0.0 0.00 0.00 0.00 60 1019.6
20260507070230 57 218 0.0 0.0 0.00 0.00 0.00 62 1019.4
20260507065727 58 171 2.0 2.0 0.00 0.00 0.00 59 1019.5
20260507065224 59 161 2.0 2.0 0.00 0.00 0.00 56 1019.5
20260507064721 60 282 0.0 0.0 0.00 0.00 0.00 55 1019.5
20260507064220 60 192 0.0 0.0 0.00 0.00 0.00 52 1019.2
20260507063717 60 184 1.0 1.0 0.00 0.00 0.00 53 1019.5
20260507063213 61 198 0.0 0.0 0.00 0.00 0.00 51 1019.5
20260507062710 61 185 0.0 1.0 0.00 0.00 0.00 52 1019.6
20260507062208 61 204 0.0 0.0 0.00 0.00 0.00 52 1019.6
20260507061706 62 90 3.0 3.0 0.00 0.00 0.00 50 1019.6
20260507061203 61 359 0.0 1.0 0.00 0.00 0.00 52 1019.4
20260507060701 62 159 3.0 3.0 0.00 0.00 0.00 50 1019.1
20260507060157 62 224 0.0 0.0 0.00 0.00 0.00 50 1019.2
20260507055653 64 19 0.0 0.0 0.00 0.00 0.00 48 1019.0
20260507055149 64 40 0.0 1.0 0.00 0.00 0.00 45 1019.6
20260507054645 60 301 0.0 1.0 0.00 0.00 0.00 48 1019.7
20260507054142 60 124 1.0 2.0 0.00 0.00 0.00 47 1019.7
20260507053641 61 198 3.0 3.0 0.00 0.00 0.00 54 1019.7
20260507053138 64 293 0.0 0.0 0.00 0.00 0.00 47 1019.6
20260507052637 66 58 0.0 1.0 0.00 0.00 0.00 39 1019.2
20260507052132 60 16 1.0 2.0 0.00 0.00 0.00 53 1019.6
20260507051630 61 144 0.0 0.0 0.00 0.00 0.00 54 1019.5
20260507051127 60 208 0.0 0.0 0.00 0.00 0.00 56 1019.6
20260507050624 62 137 0.0 1.0 0.00 0.00 0.00 55 1019.0
20260507050120 63 184 0.0 0.0 0.00 0.00 0.00 48 1019.4
20260507045617 64 150 1.0 1.0 0.00 0.00 0.00 52 1019.2
20260507045114 67 11 4.0 5.0 0.00 0.00 0.00 44 1019.1
20260507044611 67 220 3.0 3.0 0.00 0.00 0.00 40 1019.1
20260507044108 66 206 5.0 6.0 0.00 0.00 0.00 40 1019.5
20260507043603 65 207 1.0 1.0 0.00 0.00 0.00 45 1019.4
20260507043101 65 234 0.0 0.0 0.00 0.00 0.00 45 1019.4
20260507042556 66 113 1.0 1.0 0.00 0.00 0.00 45 1019.1
20260507042052 66 73 1.0 1.0 0.00 0.00 0.00 45 1019.4
20260507041549 67 97 1.0 1.0 0.00 0.00 0.00 44 1019.2
20260507041046 67 184 3.0 3.0 0.00 0.00 0.00 41 1019.2
20260507040543 68 216 3.0 3.0 0.00 0.00 0.00 43 1019.4
20260507040039 68 258 0.0 0.0 0.00 0.00 0.00 40 1019.2
20260507035535 68 90 5.0 8.0 0.00 0.00 0.00 41 1019.1
20260507035032 69 166 3.0 6.0 0.00 0.00 0.00 39 1019.0
20260507034528 64 216 0.0 0.0 0.00 0.00 0.00 49 1018.8
20260507034026 64 8 3.0 3.0 0.00 0.00 0.00 53 1019.0
20260507033524 64 150 0.0 0.0 0.00 0.00 0.00 51 1018.8
20260507033021 65 38 1.0 1.0 0.00 0.00 0.00 49 1018.8
20260507032518 64 27 1.0 1.0 0.00 0.00 0.00 52 1018.4
20260507032014 66 62 2.0 2.0 0.00 0.00 0.00 50 1018.6
20260507031510 68 48 0.0 0.0 0.00 0.00 0.00 44 1018.6
20260507031008 69 231 2.0 3.0 0.00 0.00 0.00 42 1018.4
20260507030504 65 110 1.0 2.0 0.00 0.00 0.00 44 1018.7
20260507030002 66 141 2.0 2.0 0.00 0.00 0.00 50 1018.4
20260507025459 67 156 3.0 3.0 0.00 0.00 0.00 45 1018.4
20260507024957 64 208 2.0 2.0 0.00 0.00 0.00 51 1018.6
20260507024454 66 197 0.0 1.0 0.00 0.00 0.00 51 1018.1
20260507023950 66 147 0.0 0.0 0.00 0.00 0.00 47 1018.3
20260507023447 65 333 1.0 1.0 0.00 0.00 0.00 48 1018.3
20260507022944 66 172 0.0 0.0 0.00 0.00 0.00 45 1018.7
20260507022441 67 258 0.0 0.0 0.00 0.00 0.00 43 1018.7
20260507021936 65 234 0.0 1.0 0.00 0.00 0.00 45 1018.5
20260507021432 66 203 0.0 0.0 0.00 0.00 0.00 50 1018.6
20260507020930 67 264 0.0 0.0 0.00 0.00 0.00 51 1018.4
20260507020426 68 240 3.0 5.0 0.00 0.00 0.00 43 1018.5
20260507015923 66 74 2.0 3.0 0.00 0.00 0.00 43 1018.3
20260507015422 66 206 0.0 1.0 0.00 0.00 0.00 51 1018.6
20260507014918 67 289 2.0 2.0 0.00 0.00 0.00 49 1018.3
20260507014415 66 301 0.0 0.0 0.00 0.00 0.00 52 1018.4
20260507013911 67 166 0.0 0.0 0.00 0.00 0.00 52 1018.5
20260507013408 68 157 0.0 1.0 0.00 0.00 0.00 54 1018.7
20260507012906 68 308 1.0 1.0 0.00 0.00 0.00 52 1018.6
20260507012402 69 188 1.0 1.0 0.00 0.00 0.00 51 1018.3
20260507011859 69 239 0.0 0.0 0.00 0.00 0.00 49 1018.4
20260507011355 70 206 1.0 1.0 0.00 0.00 0.00 58 1018.5
20260507010849 70 159 0.0 0.0 0.00 0.00 0.00 50 1018.6
20260507010345 70 246 1.0 1.0 0.00 0.00 0.00 49 1018.4
20260507005843 70 214 1.0 1.0 0.00 0.00 0.00 53 1018.5
20260507005339 70 210 0.0 0.0 0.00 0.00 0.00 47 1018.6
20260507004836 70 263 0.0 0.0 0.00 0.00 0.00 47 1018.8
20260507004333 70 343 1.0 1.0 0.00 0.00 0.00 48 1018.5
20260507003830 71 256 0.0 1.0 0.00 0.00 0.00 45 1018.7
20260507003326 71 257 0.0 1.0 0.00 0.00 0.00 42 1018.8
20260507002821 72 257 0.0 0.0 0.00 0.00 0.00 44 1018.5
20260507002317 71 344 3.0 3.0 0.00 0.00 0.00 42 1018.8
20260507001815 71 60 2.0 2.0 0.00 0.00 0.00 43 1018.6
20260507001312 71 84 1.0 1.0 0.00 0.00 0.00 43 1018.7
20260507000808 71 337 0.0 1.0 0.00 0.00 0.00 42 1018.9
20260507000306 71 4 2.0 3.0 0.00 0.00 0.00 43 1018.7
20260506235800 71 8 2.0 2.0 0.00 0.00 0.00 44 1019.2
20260506235256 71 324 2.0 2.0 0.00 0.00 0.00 44 1018.7
20260506234753 70 10 3.0 5.0 0.00 0.00 0.00 43 1018.8
20260506234251 70 40 6.0 8.0 0.00 0.00 0.00 43 1018.8
20260506233748 70 357 4.0 5.0 0.00 0.00 0.00 47 1018.8
20260506233244 71 265 0.0 0.0 0.00 0.00 0.00 49 1018.9
20260506232741 72 240 0.0 0.0 0.00 0.00 0.00 44 1018.6
20260506232236 72 238 0.0 0.0 0.00 0.00 0.00 41 1018.7
20260506231734 71 216 0.0 0.0 0.00 0.00 0.00 41 1018.7
20260506231232 72 238 0.0 1.0 0.00 0.00 0.00 42 1018.9
20260506230728 72 247 0.0 0.0 0.00 0.00 0.00 43 1018.7
20260506230225 71 254 0.0 0.0 0.00 0.00 0.00 44 1018.6
20260506225721 71 259 0.0 0.0 0.00 0.00 0.00 40 1018.7
20260506225219 72 218 0.0 0.0 0.00 0.00 0.00 41 1018.9
20260506224715 72 241 0.0 0.0 0.00 0.00 0.00 43 1018.9
20260506224212 71 234 0.0 0.0 0.00 0.00 0.00 43 1019.0
20260506223708 70 254 0.0 0.0 0.00 0.00 0.00 44 1019.2
20260506223204 69 256 0.0 0.0 0.00 0.00 0.00 47 1019.2
20260506222702 68 253 0.0 1.0 0.00 0.00 0.00 45 1019.5
20260506222157 68 280 0.0 1.0 0.00 0.00 0.00 43 1019.7
20260506221655 68 243 2.0 2.0 0.00 0.00 0.00 45 1019.8
20260506221153 70 249 1.0 1.0 0.00 0.00 0.00 45 1019.6
20260506220649 69 237 0.0 0.0 0.00 0.00 0.00 41 1019.6
20260506220145 70 234 0.0 0.0 0.00 0.00 0.00 41 1019.8
20260506215642 70 220 0.0 0.0 0.00 0.00 0.00 39 1020.0
20260506215136 70 225 0.0 0.0 0.00 0.00 0.00 42 1019.8
20260506214634 69 204 0.0 1.0 0.00 0.00 0.00 42 1020.0
20260506214131 69 189 0.0 0.0 0.00 0.00 0.00 40 1020.4
20260506213630 67 259 1.0 2.0 0.00 0.00 0.00 43 1020.6
20260506213126 68 252 0.0 0.0 0.00 0.00 0.00 43 1020.2
20260506212624 68 281 0.0 0.0 0.00 0.00 0.00 42 1020.4
20260506212118 68 229 1.0 1.0 0.00 0.00 0.00 45 1020.7
20260506211614 67 234 0.0 0.0 0.00 0.00 0.00 41 1020.8
20260506211111 66 244 0.0 0.0 0.00 0.00 0.00 41 1020.8
20260506210608 66 248 0.0 1.0 0.00 0.00 0.00 43 1020.9
20260506210105 66 224 1.0 1.0 0.00 0.00 0.00 45 1020.9
20260506205602 66 204 2.0 2.0 0.00 0.00 0.00 44 1020.9
20260506205056 67 210 1.0 2.0 0.00 0.00 0.00 41 1021.1
20260506204555 66 205 2.0 3.0 0.00 0.00 0.00 43 1020.8
20260506204051 67 240 0.0 0.0 0.00 0.00 0.00 39 1020.9
20260506203550 69 204 2.0 2.0 0.00 0.00 0.00 43 1021.3
20260506203046 67 191 6.0 9.0 0.00 0.00 0.00 41 1021.1
20260506202544 66 190 5.0 6.0 0.00 0.00 0.00 42 1021.0
20260506202040 66 255 1.0 2.0 0.00 0.00 0.00 46 1021.3
20260506201538 66 210 3.0 5.0 0.00 0.00 0.00 43 1021.3
20260506201034 65 244 0.0 0.0 0.00 0.00 0.00 40 1021.3
20260506200530 64 204 5.0 6.0 0.00 0.00 0.00 43 1021.6
20260506200027 65 246 1.0 2.0 0.00 0.00 0.00 43 1021.5
20260506195524 63 200 3.0 3.0 0.00 0.00 0.00 44 1021.8
20260506195020 63 239 1.0 2.0 0.00 0.00 0.00 48 1021.8
20260506194518 64 257 3.0 3.0 0.00 0.00 0.00 42 1022.1
20260506194014 64 253 0.0 0.0 0.00 0.00 0.00 41 1021.9
20260506193512 61 213 2.0 2.0 0.00 0.00 0.00 44 1022.2
20260506193009 62 259 2.0 2.0 0.00 0.00 0.00 43 1022.2
20260506192505 62 279 2.0 2.0 0.00 0.00 0.00 41 1022.6
20260506192001 62 194 1.0 1.0 0.00 0.00 0.00 42 1022.5
20260506191458 62 199 0.0 1.0 0.00 0.00 0.00 42 1022.9
20260506190955 61 106 2.0 2.0 0.00 0.00 0.00 45 1022.8
20260506190452 61 108 1.0 2.0 0.00 0.00 0.00 42 1022.7
20260506185948 59 69 2.0 3.0 0.00 0.00 0.00 42 1022.8
20260506185446 60 246 0.0 0.0 0.00 0.00 0.00 42 1022.9
20260506184942 60 7 2.0 2.0 0.00 0.00 0.00 41 1023.1
20260506184439 59 254 1.0 2.0 0.00 0.00 0.00 43 1023.1
20260506183937 59 290 3.0 5.0 0.00 0.00 0.00 45 1023.6
20260506183432 59 268 1.0 2.0 0.00 0.00 0.00 42 1023.4
20260506182929 58 186 0.0 0.0 0.00 0.00 0.00 41 1023.3
20260506182426 57 167 0.0 0.0 0.00 0.00 0.00 44 1023.4
20260506181924 58 212 2.0 2.0 0.00 0.00 0.00 43 1023.4
20260506181422 58 230 2.0 2.0 0.00 0.00 0.00 43 1023.6
20260506180918 56 214 0.0 1.0 0.00 0.00 0.00 43 1023.7
20260506180414 57 271 0.0 1.0 0.00 0.00 0.00 45 1023.7
20260506175911 55 290 1.0 1.0 0.00 0.00 0.00 43 1023.7
20260506175408 55 330 1.0 1.0 0.00 0.00 0.00 45 1023.8
20260506174905 57 266 3.0 5.0 0.00 0.00 0.00 44 1024.0
20260506174403 56 292 3.0 5.0 0.00 0.00 0.00 44 1024.2
20260506173900 55 248 5.0 6.0 0.00 0.00 0.00 45 1024.0
20260506173356 55 254 3.0 5.0 0.00 0.00 0.00 48 1024.2
20260506172853 56 233 2.0 5.0 0.00 0.00 0.00 48 1024.3
20260506172350 55 246 2.0 3.0 0.00 0.00 0.00 45 1024.2
20260506171847 54 247 0.0 0.0 0.00 0.00 0.00 46 1024.2
20260506171344 55 330 5.0 7.0 0.00 0.00 0.00 45 1024.7
20260506170842 53 260 1.0 1.0 0.00 0.00 0.00 45 1024.8
20260506170337 54 293 3.0 5.0 0.00 0.00 0.00 48 1024.5
20260506165832 52 157 0.0 1.0 0.00 0.00 0.00 48 1024.7
20260506165329 53 97 0.0 1.0 0.00 0.00 0.00 48 1024.7
20260506164825 51 300 2.0 2.0 0.00 0.00 0.00 49 1025.0
20260506164322 51 14 1.0 1.0 0.00 0.00 0.00 50 1024.9
20260506163819 51 281 2.0 2.0 0.00 0.00 0.00 50 1025.2
20260506163314 51 318 1.0 1.0 0.00 0.00 0.00 49 1025.1
20260506162809 50 308 1.0 1.0 0.00 0.00 0.00 52 1025.3
20260506162308 50 251 2.0 2.0 0.00 0.00 0.00 53 1025.3
20260506161805 49 238 0.0 1.0 0.00 0.00 0.00 54 1025.4
20260506161302 49 280 3.0 3.0 0.00 0.00 0.00 52 1025.5
20260506160800 49 235 0.0 1.0 0.00 0.00 0.00 58 1025.7
20260506160256 48 326 2.0 2.0 0.00 0.00 0.00 59 1025.7
20260506155755 47 73 0.0 1.0 0.00 0.00 0.00 57 1025.8
20260506155251 46 30 1.0 2.0 0.00 0.00 0.00 60 1026.1
20260506153404 42 319 1.0 2.0 0.00 0.00 0.00 69 1026.2
20260506152901 42 253 0.0 0.0 0.00 0.00 0.00 68 1026.3
20260506152358 42 315 2.0 2.0 0.00 0.00 0.00 68 1026.4
20260506151857 42 329 1.0 1.0 0.00 0.00 0.00 69 1026.4
20260506151353 41 259 0.0 0.0 0.00 0.00 0.00 70 1026.4
20260506150851 41 343 1.0 1.0 0.00 0.00 0.00 70 1026.2
20260506150347 41 297 0.0 0.0 0.00 0.00 0.00 73 1026.6
20260506145844 41 255 0.0 0.0 0.00 0.00 0.00 73 1026.6
20260506145340 41 263 0.0 0.0 0.00 0.00 0.00 73 1026.6
20260506144838 40 253 0.0 0.0 0.00 0.00 0.00 75 1026.5
20260506144334 40 248 0.0 0.0 0.00 0.00 0.00 75 1026.6
20260506143833 40 257 0.0 0.0 0.00 0.00 0.00 76 1026.6
20260506143329 40 191 0.0 0.0 0.00 0.00 0.00 76 1026.6
20260506142828 40 43 0.0 1.0 0.00 0.00 0.00 76 1026.9
20260506142325 40 19 1.0 1.0 0.00 0.00 0.00 75 1026.8
20260506141823 41 333 2.0 2.0 0.00 0.00 0.00 73 1026.6
20260506141321 39 220 0.0 0.0 0.00 0.00 0.00 76 1026.9
20260506140819 39 256 0.0 0.0 0.00 0.00 0.00 79 1026.9
20260506140315 39 210 0.0 0.0 0.00 0.00 0.00 82 1027.1
20260506135813 37 206 0.0 0.0 0.00 0.00 0.00 83 1027.2
20260506135308 36 205 0.0 0.0 0.00 0.00 0.00 84 1027.0
20260506134805 35 205 0.0 0.0 0.00 0.00 0.00 87 1027.0
20260506134302 34 187 0.0 0.0 0.00 0.00 0.00 90 1027.1
20260506133759 33 198 0.0 0.0 0.00 0.00 0.00 92 1027.0
20260506133256 32 238 0.0 0.0 0.00 0.00 0.00 92 1027.0
20260506132752 32 238 0.0 0.0 0.00 0.00 0.00 93 1027.0
20260506132250 31 239 0.0 0.0 0.00 0.00 0.00 93 1026.9
20260506131748 31 239 0.0 0.0 0.00 0.00 0.00 93 1026.9
20260506131243 30 239 0.0 0.0 0.00 0.00 0.00 93 1027.0
20260506130740 29 237 0.0 0.0 0.00 0.00 0.00 93 1026.8
20260506130237 29 240 0.0 0.0 0.00 0.00 0.00 92 1026.9
20260506125735 28 261 0.0 0.0 0.00 0.00 0.00 92 1027.0
20260506125233 29 222 0.0 0.0 0.00 0.00 0.00 92 1026.9
20260506124731 29 222 0.0 0.0 0.00 0.00 0.00 92 1026.6
20260506124228 29 217 0.0 0.0 0.00 0.00 0.00 92 1026.5
20260506123726 28 222 0.0 0.0 0.00 0.00 0.00 92 1026.6
20260506123225 28 222 0.0 0.0 0.00 0.00 0.00 92 1026.5
20260506122721 29 222 0.0 0.0 0.00 0.00 0.00 92 1026.8
20260506122218 28 222 0.0 0.0 0.00 0.00 0.00 92 1026.3
20260506121716 29 221 0.0 0.0 0.00 0.00 0.00 92 1026.4
20260506121212 29 212 0.0 0.0 0.00 0.00 0.00 92 1026.3
20260506120710 29 213 0.0 0.0 0.00 0.00 0.00 92 1026.3
20260506120208 29 212 0.0 0.0 0.00 0.00 0.00 91 1026.4
20260506115706 29 213 0.0 0.0 0.00 0.00 0.00 91 1026.6
20260506115203 29 236 0.0 0.0 0.00 0.00 0.00 91 1026.2
20260506114700 28 237 0.0 0.0 0.00 0.00 0.00 91 1026.3
20260506114158 28 238 0.0 0.0 0.00 0.00 0.00 91 1026.5
20260506113657 28 237 0.0 0.0 0.00 0.00 0.00 90 1026.6
20260506113154 29 259 0.0 0.0 0.00 0.00 0.00 90 1026.6
20260506112649 29 279 0.0 0.0 0.00 0.00 0.00 90 1026.5
20260506112148 29 308 1.0 1.0 0.00 0.00 0.00 90 1026.6
20260506111645 29 313 1.0 1.0 0.00 0.00 0.00 90 1026.4
20260506111142 29 312 1.0 1.0 0.00 0.00 0.00 90 1026.5
20260506110639 29 319 0.0 0.0 0.00 0.00 0.00 90 1026.4
20260506110137 30 300 1.0 1.0 0.00 0.00 0.00 90 1026.5
20260506105633 30 267 0.0 0.0 0.00 0.00 0.00 90 1026.5
20260506105130 31 241 0.0 0.0 0.00 0.00 0.00 90 1026.5
20260506104629 30 244 0.0 0.0 0.00 0.00 0.00 90 1026.2
20260506104126 29 330 1.0 1.0 0.00 0.00 0.00 90 1026.2
20260506103623 29 287 0.0 0.0 0.00 0.00 0.00 90 1026.5
20260506103120 30 274 0.0 0.0 0.00 0.00 0.00 90 1026.3
20260506102618 30 229 0.0 0.0 0.00 0.00 0.00 90 1026.3
20260506102115 31 219 0.0 0.0 0.00 0.00 0.00 89 1026.1
20260506101612 30 190 0.0 0.0 0.00 0.00 0.00 89 1026.3
20260506101108 30 209 0.0 0.0 0.00 0.00 0.00 89 1026.1
20260506100607 30 240 0.0 0.0 0.00 0.00 0.00 89 1026.2
20260506100105 31 240 0.0 0.0 0.00 0.00 0.00 88 1026.1
20260506095603 31 241 0.0 0.0 0.00 0.00 0.00 88 1026.2
20260506095059 31 229 0.0 0.0 0.00 0.00 0.00 88 1026.3
20260506094557 32 214 0.0 0.0 0.00 0.00 0.00 88 1026.3
20260506094055 32 214 0.0 0.0 0.00 0.00 0.00 88 1026.3
20260506093553 32 215 0.0 0.0 0.00 0.00 0.00 87 1026.2
20260506093050 32 209 0.0 0.0 0.00 0.00 0.00 87 1026.3
20260506092548 31 201 1.0 1.0 0.00 0.00 0.00 87 1026.4
20260506092045 31 244 1.0 1.0 0.00 0.00 0.00 86 1026.2
20260506091543 32 215 0.0 0.0 0.00 0.00 0.00 86 1026.4
20260506091039 32 199 1.0 1.0 0.00 0.00 0.00 87 1026.1